• Join FlightAware (Why Join?)
  • Login
  • US Flag 
09:43PM EST


 

Airport Tracker/Info


-or-


 

Live Flight TrackerFlight Track Log ✈ AWI3688 ✈ 01-May-2013 ✈ KPHL - KALB

Flight Track Log - Related Links

Times and Time Zones

All times are in EDT time to prevent confusion due to time zone crossing. See the AWI3688 flight status page for this flight to view local times or setup timezone preferences in your user account.

Time Position Orientation Groundspeed Altitude Reporting Facility
EDT Latitude Longitude Course Direction KTS MPH feet Rate Location/Type
12:04PM 39.8833 -75.2000 37° Northeast 145 167 1,000  Level Philadelphia TRACON
12:06PM 39.8167 -74.8719 90° East  Level FlightAware Approximate
12:06PM 39.8536 -75.0161 102° East 243 280 7,800  Level New York Center
12:07PM 39.7933 -74.7495 105° East  Level FlightAware Approximate
12:07PM 39.8358 -74.9314 105° East 265 305 10,300  Level New York Center
12:08PM 39.8291 -74.6543 37° Northeast  Level FlightAware Approximate
12:08PM 39.8125 -74.8244 106° East 287 330 11,500  Level New York Center
12:09PM 39.9060 -74.5774 37° Northeast  Level FlightAware Approximate
12:09PM 39.8125 -74.7031 90° East 308 354 13,600  Level New York Center
12:10PM 39.8881 -74.6206 40° Northeast 300 345 15,400 1,850 Climbing New York Center
12:11PM 39.9678 -74.5439 36° Northeast 318 366 17,300 1,636 Climbing New York Center
12:12PM 40.0558 -74.4592 36° Northeast 346 398 18,700 1,271 Climbing New York Center
12:13PM 40.1292 -74.3842 38° Northeast 359 413 19,800 1,169 Climbing New York Center
12:14PM 40.2128 -74.3044 36° Northeast 369 425 21,000 1,190 Climbing New York Center
12:15PM 40.2967 -74.2217 37° Northeast 374 430 22,200 1,230 Climbing New York Center
12:16PM 40.3783 -74.1358 39° Northeast 374 430 23,500 571 Climbing New York Center
12:18PM 40.5850 -73.9867 29° Northeast 395 455 24,000 160 Climbing Boston Center
12:19PM 40.6836 -73.9289 24° Northeast 390 449 24,000  Level Boston Center
12:20PM 40.7803 -73.8736 23° Northeast 379 436 24,000  Level Boston Center
12:21PM 40.8586 -73.7819 41° Northeast 374 430 24,000 -250 Level Boston Center
12:22PM 40.9367 -73.6875 42° Northeast 374 430 23,500 -500 Descending Boston Center
12:23PM 41.0147 -73.5953 42° Northeast 374 430 23,000 -400 Descending Boston Center
12:24PM 41.0969 -73.5086 38° Northeast 374 430 22,700 -750 Descending Boston Center
12:25PM 41.2014 -73.4719 15° North 369 425 21,500 -1,250 Descending Boston Center
12:26PM 41.3206 -73.4294 15° North 406 467 20,200 -1,100 Descending Boston Center
12:27PM 41.4064 -73.4006 14° North 401 461 19,300 -1,150 Descending Boston Center
12:28PM 41.5397 -73.4136 356° North 389 448 17,900 -750 Descending Boston Center
12:29PM 41.6311 -73.4289 353° North 384 442 17,800 -1,150 Descending Boston Center
12:30PM 41.7372 -73.4528 350° North 360 414 15,600 -2,136 Descending Boston Center
12:32PM 41.8517 -73.4769 351° North 345 397 13,100 -2,067 Descending Boston Center
12:32PM 41.8850 -73.4803 356° North 348 400 12,500 -1,875 Descending Boston Center
12:32PM 41.9286 -73.4892 351° North 350 403 11,600 -1,475 Descending Boston Center
12:33PM 41.9764 -73.5014 349° North 345 397 11,000 -424 Descending Boston Center
12:34PM 42.0639 -73.5194 351° North 338 389 11,000 67 Level Boston Center
12:34PM 42.1056 -73.5258 354° North 350 403 11,100  Climbing Boston Center
12:35PM 42.1556 -73.5294 357° North 336 387 11,000  Descending Boston Center
12:35PM 42.1992 -73.5442 346° North 345 397 11,100  Climbing Boston Center
12:36PM 42.2469 -73.5564 349° North 336 387 11,000  Descending Boston Center
12:36PM 42.2886 -73.5683 348° North 340 391 11,100 -500 Climbing Boston Center
12:37PM 42.3342 -73.5831 347° North 322 371 10,500 -1,300 Descending Boston Center
12:37PM 42.3697 -73.5867 356° North 306 352 9,800 -1,967 Descending Boston Center
12:38PM 42.4133 -73.6014 346° North 280 322 8,500 -2,122 Descending Boston Center
12:39PM 42.4817 -73.6253 346° North 278 320 6,900 -1,983 Descending Boston Center
12:40PM 42.5564 -73.6519 345° North 273 314 4,700 -1,967 Descending Boston Center
12:41PM 42.6247 -73.6931 336° Northwest 271 312 2,900 -1,438 Descending Boston Center
12:42PM 42.6908 -73.7450 330° Northwest 246 283 1,800 -1,100 Descending Boston Center